CZ-4 DEB, 26211

Orbit data source: Space-Track

CZ-4 DEB, 26211 is space debris in SSO originally from a launch on Thu, 14 Oct 1999 UTC launched from the Taiyaun Space Center, China (TSC). Debris objects in space refer to the collection of defunct objects orbiting the Earth. Examples of debris include non-operational satellites, rocket bodies, and fragments generated from explosions, collisions, or faulty payload assembly.

Loading next visibility...
Identifier
26211, 1999-057CZ
Orbit
SSO
Country
Flag of CNCN / PRC
Related business
Manufacturer
Unknown
Mission
Spacecraft
Bus & Motor
Unknown
Mass
Unknown
Launch date (UTC)
1999-10-14 (26 years ago)
Launch vehicle
Unknown
Launch site
Taiyaun Space Center, China (TSC)
Object type
Payload
Rocket body
Debris
Shape & HBR
Unknown shape, 0.1 m
Radar Cross Section
Small (<0.1 m²)

Expand to show TLE details & history
Last TLE update: 4 hours ago

TLE from 4 hours ago
0 CZ-4 DEB
1 26211U 99057CZ  26037.18434492  .00000527  00000-0  50366-3 0  9992
2 26211  98.9453 113.9965 0540413 223.1196 167.4276 13.33337791256700
Epoch: 2026-02-06T04:25Z
TLE epoch observation values (Epoch: 2026-02-06T04:25:27.401Z)
Latitude
31.43064°
Longitude
-94.18709°
Altitude
1,535.368 km
Speed
6.911 km/s
True Right ascension
07h 14m 00s
True Declination
31° 17' 34"
Sunlit
Object was in full shadow at epoch
Visualization orbit readout
Latitude
Unknown
Longitude
Unknown
Altitude
Unknown
Speed
Unknown
Apparent Right ascension
Unknown
Apparent Declination
Unknown
Sunlit
N/A
Visualization observer readout
Local Sidereal Time
10:44:43
Azimuth
Unknown
Elevation
Unknown
Doppler factor
Unknown
Orbital elements
Apogee altitude
1,537.304 km
Perigee altitude
725.645 km
Semi-major axis
7,509.612 km
Eccentricity
0.05404
Inclination
98.9453°
RAAN
113.9965°
Arg. of periapsis
223.1196°
True anomaly
168.69191°
Mean anomaly
167.4276°
Eccentric anomaly
168.06778°
Mean motion
3.33516 °/min
Orbital period
107.94 mins
BSTAR
0.00050366
Loading maneuver chart data...
Computing Atmospheric mass density...
Loading historical data...
Loading historical data...
Loading historical data...
Loading historical data...
Loading historical data...
Loading historical data...
Loading historical data...

Documentation

Showing up to 5 results
|